Location: Unspecified
(0.0000°N, 0.0000°E)
Time: 02:22:46
(UTC+00:00)

Vanguard 1 Rocket - All Passes

Search period start: 26 January 2015 00:00
Search period end: 05 February 2015 00:00
Orbit: 656 x 4224 km, 34.3° (Epoch: 21 January)

Date Brightness Start Highest point End Pass type
(mag) Time Alt. Az. Time Alt. Az. Time Alt. Az.
26 Jan - 01:21:40 10° WNW 01:40:56 23° NNW 01:55:25 10° NNE visible
26 Jan - 04:10:24 10° NNW 04:18:46 14° N 04:25:13 10° NNE visible
26 Jan - 06:42:38 10° NNW 06:51:18 24° NNE 06:56:57 10° ENE daylight
26 Jan - 09:11:07 10° WNW 09:18:13 66° SW 09:22:50 10° SE daylight
26 Jan - 16:41:01 10° SSE 16:45:05 13° SSE 16:51:29 10° ESE daylight
26 Jan - 19:01:20 10° SSW 19:14:54 53° SE 19:38:32 10° ENE visible
26 Jan - 21:27:38 10° WSW 21:47:07 69° NW 22:13:24 10° NE visible
27 Jan - 00:02:14 10° W 00:23:59 32° NNW 00:43:08 10° NNE visible
27 Jan - 02:50:18 10° NW 03:03:02 16° N 03:12:23 10° NNE visible
27 Jan - 05:29:09 10° NNW 05:38:19 19° NNE 05:44:45 10° NE visible
27 Jan - 07:58:23 10° NW 08:07:32 58° NNE 08:12:47 10° ESE daylight
27 Jan - 10:29:38 10° WSW 10:32:27 14° SW 10:34:46 10° S daylight
27 Jan - 17:51:39 10° SSW 18:01:56 33° SE 18:20:00 10° E daylight
27 Jan - 20:15:42 10° SW 20:32:11 89° SE 20:58:42 10° NE visible
27 Jan - 22:45:53 10° W 23:07:12 43° NNW 23:30:15 10° NE visible
28 Jan - 01:28:32 10° WNW 01:46:15 21° NNW 01:59:42 10° NNE visible
28 Jan - 04:13:50 10° NNW 04:24:08 17° N 04:31:43 10° NE visible
28 Jan - 06:45:24 10° NW 06:55:55 35° NNE 07:02:02 10° E daylight
28 Jan - 09:15:21 10° WNW 09:22:02 39° SW 09:26:29 10° SSE daylight
28 Jan - 16:43:18 10° S 16:49:23 17° SE 16:59:09 10° ESE daylight
28 Jan - 19:04:53 10° SW 19:18:24 65° SE 19:42:39 10° ENE visible
28 Jan - 21:31:55 10° WSW 21:51:01 58° NNW 22:16:36 10° NE visible
29 Jan - 00:08:21 10° WNW 00:28:56 27° NNW 00:46:50 10° NNE visible
29 Jan - 02:55:42 10° NW 03:08:36 17° N 03:18:12 10° NE visible
29 Jan - 05:31:46 10° NNW 05:43:15 26° NNE 05:50:28 10° ENE visible
29 Jan - 08:01:55 10° NW 08:11:35 90° S 08:16:57 10° SE daylight
29 Jan - 17:54:58 10° SSW 18:05:37 41° SE 18:25:04 10° ENE daylight
29 Jan - 20:19:39 10° WSW 20:35:50 77° NW 21:02:02 10° NE visible
29 Jan - 22:51:10 10° W 23:11:43 36° NNW 23:33:35 10° NE visible
30 Jan - 01:35:10 10° NW 01:51:47 19° N 02:04:34 10° NNE visible
30 Jan - 04:16:55 10° NNW 04:29:21 21° N 04:37:54 10° ENE visible
30 Jan - 06:48:25 10° NW 07:00:19 51° NNE 07:06:41 10° ESE daylight
30 Jan - 09:20:05 10° W 09:25:48 24° SW 09:29:47 10° SSE daylight
30 Jan - 16:46:07 10° S 16:53:25 23° SE 17:05:41 10° E daylight
30 Jan - 19:08:34 10° SW 19:21:54 78° SE 19:46:24 10° NE visible
30 Jan - 21:36:33 10° W 21:55:11 48° NNW 22:19:45 10° NE visible
31 Jan - 00:14:50 10° WNW 00:34:11 24° NNW 00:50:56 10° NNE visible
31 Jan - 03:00:09 10° NW 03:14:06 19° N 03:24:21 10° NE visible
31 Jan - 05:34:31 10° NW 05:47:58 35° NNE 05:55:39 10° E visible
31 Jan - 08:05:46 10° WNW 08:15:25 59° SW 08:20:50 10° SE daylight
31 Jan - 17:58:26 10° SSW 18:09:09 52° SE 18:29:34 10° ENE daylight
31 Jan - 20:23:49 10° WSW 20:39:42 64° NNW 21:05:13 10° NE visible
31 Jan - 22:56:51 10° WNW 23:16:35 31° NNW 23:37:06 10° NNE visible
01 Feb - 01:41:12 10° NW 01:57:25 19° N 02:10:06 10° NE visible
01 Feb - 04:19:49 10° NNW 04:34:24 27° NNE 04:43:38 10° ENE visible
01 Feb - 06:51:41 10° NW 07:04:29 74° NE 07:11:00 10° ESE daylight
01 Feb - 09:25:38 10° WSW 09:29:36 15° SW 09:32:31 10° S daylight
01 Feb - 16:49:13 10° SSW 16:57:12 30° SE 17:11:22 10° E daylight
01 Feb - 19:12:26 10° SW 19:25:31 86° NW 19:49:52 10° NE visible
01 Feb - 21:41:32 10° W 21:59:39 40° NNW 22:22:56 10° NE visible
02 Feb - 00:21:23 10° NW 00:39:43 22° N 00:55:34 10° NE visible
02 Feb - 03:03:53 10° NNW 03:19:28 23° N 03:30:28 10° ENE visible
02 Feb - 05:37:24 10° NW 05:52:29 48° NNE 06:00:25 10° E visible
02 Feb - 08:10:01 10° WNW 08:19:08 39° SW 08:24:26 10° SSE daylight
02 Feb - 15:41:52 10° SSE 15:45:30 13° SE 15:51:03 10° ESE daylight
02 Feb - 18:02:02 10° SW 18:12:40 66° SE 18:33:37 10° ENE visible
02 Feb - 20:28:16 10° WSW 20:43:50 53° NNW 21:08:17 10° NE visible
02 Feb - 23:02:56 10° WNW 23:21:46 27° NNW 23:40:57 10° NE visible
03 Feb - 01:46:22 10° NW 02:03:03 21° N 02:16:05 10° NE visible
03 Feb - 04:22:40 10° NW 04:39:15 35° NNE 04:48:56 10° E visible
03 Feb - 06:55:13 10° NW 07:08:24 80° SW 07:15:03 10° SE daylight
03 Feb - 16:52:30 10° SSW 17:00:49 39° SE 17:16:23 10° ENE daylight
03 Feb - 19:16:29 10° WSW 19:29:21 71° NNW 19:53:06 10° NE visible
03 Feb - 21:46:54 10° W 22:04:26 33° NNW 22:26:14 10° NE visible
04 Feb - 00:27:39 10° NW 00:45:24 21° N 01:00:51 10° NE visible
04 Feb - 03:07:11 10° NW 03:24:39 28° NNE 03:36:17 10° ENE visible
04 Feb - 05:40:29 10° NW 05:56:45 64° NNE 06:04:52 10° ESE visible
04 Feb - 08:14:47 10° W 08:22:47 26° SW 08:27:45 10° SSE daylight
04 Feb - 15:44:10 10° S 15:49:27 19° SE 15:57:53 10° E daylight
04 Feb - 18:05:48 10° SW 18:16:16 82° SE 18:37:17 10° NE visible
04 Feb - 20:33:02 10° W 20:48:14 43° NNW 21:11:20 10° NE visible
04 Feb - 23:09:15 10° WNW 23:27:14 24° N 23:45:19 10° NE visible
